Location: Newark
(33.2404°N, 35.6778°E)
Time: 19:47:38
(UTC+00:00)

LightSail 2 - Visible Passes

Search period start: 18 January 2020 00:00
Search period end: 28 January 2020 00:00
Orbit: 703 x 721 km, 24.0° (Epoch: 18 January)

Date Brightness Start Highest point End Pass type
(mag) Time Alt. Az. Time Alt. Az. Time Alt. Az.
18 Jan 7.3 15:27:14 10° SSW 15:30:10 15° SSE 15:33:06 10° SE visible
18 Jan 6.7 17:10:47 10° SW 17:14:22 26° S 17:14:22 26° S visible
19 Jan 6.8 16:12:41 10° SW 16:16:48 24° S 16:19:35 16° SE visible
19 Jan 7.7 17:57:20 10° WSW 17:58:32 16° SW 17:58:32 16° SW visible
20 Jan 7.1 15:14:44 10° SSW 15:18:31 20° SSE 15:22:17 10° ESE visible
20 Jan 6.4 16:59:02 10° WSW 17:03:29 29° S 17:03:45 29° S visible
21 Jan 6.6 16:00:47 10° SW 16:05:09 28° S 16:08:58 12° ESE visible
21 Jan 7.3 17:45:49 10° WSW 17:47:55 20° SW 17:47:55 20° SW visible
22 Jan 6.5 16:47:24 10° WSW 16:51:50 29° S 16:53:09 26° SSE visible
23 Jan 6.6 15:49:02 10° WSW 15:53:29 29° S 15:57:57 10° ESE visible
23 Jan 7.1 17:34:24 10° WSW 17:37:21 22° SSW 17:37:21 22° SSW visible
24 Jan 6.8 16:35:51 10° WSW 16:40:08 26° S 16:42:39 18° SSE visible
25 Jan 6.8 15:37:22 10° WSW 15:41:45 28° S 15:46:09 10° SE visible
25 Jan 7.2 17:23:11 10° WSW 17:26:42 18° SSW 17:26:55 18° SSW visible
26 Jan 7.1 16:24:26 10° WSW 16:28:20 22° SSW 16:32:16 10° SE visible
27 Jan 7.1 15:25:48 10° WSW 15:29:57 25° S 15:34:07 10° SE visible
27 Jan 7.6 17:12:30 10° SW 17:14:50 13° SSW 17:16:43 11° S visible
